Content
SEND FEEDBACK

Daily
Averages
Monthly
Summary
United States of America

NEWARK, NEW JERSEY


Home > North America > United States > New Jersey
Elevation: 30 feet     Latitude: 40 42N     Longitude: 074 10W

WEATHER
 
SELECT A DAY
Number of Records: 189,740;   Date Range: 1/1/95 - 8/12/14
 
SHARE

PRINT THIS DATA

[ ← Previous Day ]
WEATHER ALMANAC - APRIL 3, 2013
[ Next Day → ]
[ °C ]   °F
Weather ElementAverageHighLow
Temperature39.5 °F48 °F (3:51 pm)30.9 °F (6:51 am)
Dewpoint9.3 °F12.9 °F (7:51 am)6.1 °F (5:51 pm)
Humidity30.1 %46 % (6:51 am)20 % (3:51 pm)
Barometer30.17 in30.30 in (10:51 pm)30.10 in (2:51 am)
Wind Speed14.7 mph24.2 mph (5:51 pm)
Wind Gust33.4 mph (10:51 am)
Weather ElementAverage
Visibility10 mi
Wind DirectionWNW (288.7 °)

Weather ElementTotal
Precipitation---
Heating Degree Days25.6 (Base 65)
Averaged from 23 records on April 3, 2013
WEATHER CONDITIONS BREAKOUT
WIND DIRECTION BREAKOUT
WEATHER BY HOUR - APRIL 3, 2013
[ °C ]   °F
Local TimeTemperatureDewpointHumidityBarometerVisibilityWind DirectionWind SpeedGust SpeedPrecipitationEventsConditions
1:51 AM35.1 °F9.0 °F34 %30.11 in10.0 miWNW (290°)10.4 mphClear
2:51 AM33.1 °F9.0 °F37 %30.10 in10.0 miWest (280°)9.2 mphClear
3:51 AM33.1 °F10.0 °F38 %30.10 in10.0 miWest (280°)8.1 mphClear
4:51 AM33.1 °F10.0 °F38 %30.12 in10.0 miWSW (250°)9.2 mphClear
5:51 AM32.0 °F10.9 °F42 %30.13 in10.0 miWSW (240°)9.2 mphClear
6:51 AM30.9 °F12.0 °F46 %30.15 in10.0 miWSW (240°)6.9 mphPartly Cloudy
7:51 AM34.0 °F12.9 °F42 %30.18 in10.0 miWSW (250°)6.9 mphPartly Cloudy
8:51 AM36.0 °F12.9 °F39 %30.17 in10.0 miWest (260°)11.5 mph21.9 mphScattered Clouds
9:51 AM37.9 °F10.0 °F32 %30.16 in10.0 miNW (310°)18.4 mph29.9 mphScattered Clouds
10:51 AM42.1 °F10.9 °F28 %30.16 in10.0 miWest (280°)17.3 mph33.4 mphScattered Clouds
11:51 AM43.0 °F10.9 °F27 %30.17 in10.0 miWest (280°)15.0 mph25.3 mphScattered Clouds
12:51 PM44.1 °F9.0 °F24 %30.15 in10.0 miWest (270°)17.3 mph27.6 mphPartly Cloudy
1:51 PM46.9 °F10.9 °F23 %30.12 in10.0 miWest (270°)23.0 mph32.2 mphScattered Clouds
2:51 PM46.9 °F8.1 °F21 %30.11 in10.0 miWNW (290°)16.1 mph23.0 mphPartly Cloudy
3:51 PM48.0 °F8.1 °F20 %30.12 in10.0 miWNW (290°)16.1 mph25.3 mphMostly Cloudy
4:51 PM46.9 °F7.0 °F20 %30.12 in10.0 miNNW (330°)16.1 mph25.3 mphMostly Cloudy
5:51 PM46.0 °F6.1 °F20 %30.15 in10.0 miNNW (330°)24.2 mph31.1 mphMostly Cloudy
6:51 PM44.1 °F6.1 °F21 %30.19 in10.0 miWNW (300°)16.1 mph32.2 mphScattered Clouds
7:51 PM42.1 °F6.1 °F23 %30.23 in10.0 miNW (320°)19.6 mph24.2 mphPartly Cloudy
8:51 PM39.9 °F7.0 °F26 %30.26 in10.0 miNW (320°)17.3 mph25.3 mphClear
9:51 PM39.0 °F8.1 °F28 %30.29 in10.0 miNW (310°)17.3 mph24.2 mphClear
10:51 PM37.4 °F8.6 °F30 %30.30 in10.0 miNNW (330°)15.0 mph19.6 mphClear
11:51 PM37.0 °F10.9 °F34 %30.30 in10.0 miNW (320°)17.3 mph26.5 mphClear
Hourly data recorded from KEWR, located miles away from Newark, New Jersey







STORIES FROM OUR PARTNERS